Terminal Aerodrome Forecast
Issued by NWS Kansas City/Pleasant Hill, MO

Home | Current Version | Previous Version | Text Only | Print | Product List | Glossary On
Versions: 1 2 3 4 5 6 7 8 9 10 11 12 13
000
FTUS43 KEAX 280500
TAFMCI
TAF
KMCI 280521Z 2806/2906 14012KT P6SM SKC
     FM281700 19015G25KT P6SM FEW200
     FM290000 25012KT P6SM FEW200=

USA.gov is the U.S. government's official web portal to all federal, state and local government web resources and services.